Christchurch, New Zealand

6:02 AM NZST on May 29, 2017 (GMT +1200)
Christchurch

Weather History for 93780 - September, 2013

Change the Weather History Date:

Wednesday, September 11, 2013

  Actual Average Record
Temperature  
Mean Temperature 61 °F -  
Max Temperature 69 °F 57 °F - ()
Min Temperature 53 °F 38 °F - ()
Degree Days  
Heating Degree Days 4    
Growing Degree Days 11 (Base 50)    
Moisture  
Dew Point 49 °F    
Average Humidity 66    
Maximum Humidity 88    
Minimum Humidity 49    
Precipitation  
Precipitation 0.00 in - - ()
Sea Level Pressure  
Sea Level Pressure 29.30 in    
Wind  
Wind Speed 13 mph ()    
Max Wind Speed 33 mph    
Max Gust Speed 46 mph    
Visibility 6.2 miles    
Events Rain    
T = Trace of Precipitation, MM = Missing Value Source: Averaged Metar Reports

Daily Weather History Graph

Daily Weather History Graph

Search for Another Location

Airport or City:

Trip Planner

Search our weather history database for the weather conditions in past years. The results will help you decide how hot, cold, wet, or windy it might be!

Date:

Astronomy

Sep. 11, 2013 Rise Set
Actual Time 6:39 AM NZST 6:14 PM NZST
Civil Twilight 6:11 AM NZST 6:42 PM NZST
Nautical Twilight 5:38 AM NZST 7:15 PM NZST
Astronomical Twilight 5:04 AM NZST 7:49 PM NZST
Moon 9:32 AM NZST (9/11) No Moon Set
Length of Visible Light 12h 31m
Length of Day
11h 34m
Waxing Crescent, 31% of the Moon is Illuminated
Sep 11
Waxing Crescent
Sep 13
First Quarter
Sep 19
Full
Sep 27
Last Quarter
Oct 5
New

Hourly Weather History & Observations

Time (NZST) Temp. Dew Point Humidity Pressure Visibility Wind Dir Wind Speed Gust Speed Precip Events Conditions
12:00 AM 64.4 °F 44.6 °F 49% 29.21 in 6.2 mi NW 33.4 mph 46.0 mph N/A   Mostly Cloudy
12:30 AM 64.4 °F 44.6 °F 49% 29.27 in 6.2 mi WNW 25.3 mph - N/A   Overcast
1:00 AM 62.6 °F 48.2 °F 59% 29.27 in 6.2 mi WNW 12.7 mph - N/A Rain Light Rain
1:30 AM 64.4 °F 48.2 °F 56% 29.30 in 6.2 mi WNW 13.8 mph - N/A Rain Light Rain Showers
2:00 AM 64.4 °F 48.2 °F 56% 29.30 in 6.2 mi NW 13.8 mph 25.3 mph N/A   Mostly Cloudy
2:30 AM 64.4 °F 50.0 °F 59% 29.30 in 6.2 mi NW 11.5 mph - N/A Rain Light Rain Showers
3:00 AM 60.8 °F 51.8 °F 72% 29.30 in 6.2 mi NNW 3.5 mph - N/A Rain Light Rain
3:30 AM 59.0 °F 51.8 °F 77% 29.33 in 6.2 mi NE 1.2 mph - N/A Rain Light Rain
4:00 AM 59.0 °F 51.8 °F 77% 29.30 in 6.2 mi SSE 3.5 mph - N/A Rain Light Rain
4:30 AM 59.0 °F 51.8 °F 77% 29.33 in 6.2 mi North 13.8 mph - N/A Rain Light Rain
5:00 AM 59.0 °F 53.6 °F 82% 29.30 in 6.2 mi North 13.8 mph - N/A Rain Light Rain
5:30 AM 60.8 °F 51.8 °F 72% 29.30 in 6.2 mi North 17.3 mph - N/A Rain Light Rain
6:00 AM 59.0 °F 53.6 °F 82% 29.33 in 6.2 mi North 16.1 mph - N/A Rain Light Rain
6:30 AM 57.2 °F 53.6 °F 88% 29.33 in 6.2 mi North 21.9 mph - N/A Rain Light Rain
7:00 AM 57.2 °F 51.8 °F 82% 29.30 in 6.2 mi North 20.7 mph - N/A   Light Drizzle
7:30 AM 57.2 °F 53.6 °F 88% 29.30 in 6.2 mi North 13.8 mph - N/A Rain Light Rain Showers
8:00 AM 59.0 °F 53.6 °F 82% 29.33 in 6.2 mi North 16.1 mph - N/A   Unknown
8:30 AM 59.0 °F 53.6 °F 82% 29.33 in 6.2 mi NNE 8.1 mph - N/A   Partly Cloudy
9:00 AM 60.8 °F 55.4 °F 82% 29.36 in 6.2 mi North 11.5 mph - N/A Rain Light Rain Showers
9:30 AM 64.4 °F 55.4 °F 73% 29.30 in 6.2 mi North 5.8 mph - N/A   Scattered Clouds
10:00 AM 64.4 °F 55.4 °F 73% 29.36 in 6.2 mi NNE 11.5 mph - N/A   Unknown
10:30 AM 59.0 °F 53.6 °F 82% 29.36 in 9.3 mi North 9.2 mph - N/A Rain Light Rain
11:00 AM 59.0 °F 55.4 °F 88% 29.36 in 4.3 mi WNW 3.5 mph - N/A Rain Rain
11:30 AM 62.6 °F 51.8 °F 68% 29.33 in 6.2 mi NNW 5.8 mph - N/A Rain Light Rain Showers
12:00 PM 64.4 °F 53.6 °F 68% 29.30 in 6.2 mi NE 10.4 mph - N/A   Unknown
12:30 PM 64.4 °F 53.6 °F 68% 29.30 in 6.2 mi NE 11.5 mph - N/A   Unknown
1:00 PM 64.4 °F 53.6 °F 68% 29.30 in 6.2 mi East 4.6 mph - N/A   Scattered Clouds
1:30 PM 68.0 °F 51.8 °F 56% 29.24 in 6.2 mi WSW 3.5 mph - N/A   Partly Cloudy
2:00 PM 69.8 °F 50.0 °F 49% 29.24 in 6.2 mi NW 9.2 mph - N/A   Unknown
2:30 PM 68.0 °F 48.2 °F 49% 29.24 in 6.2 mi NW 17.3 mph - N/A   Unknown
3:00 PM 66.2 °F 48.2 °F 52% 29.24 in 6.2 mi NW 18.4 mph 29.9 mph N/A   Unknown
3:30 PM 64.4 °F 48.2 °F 56% 29.24 in 6.2 mi NW 18.4 mph - N/A   Unknown
4:00 PM 62.6 °F 48.2 °F 59% 29.24 in 6.2 mi NNW 15.0 mph - N/A   Unknown
4:30 PM 62.6 °F 48.2 °F 59% 29.24 in 6.2 mi NNW 16.1 mph - N/A   Unknown
5:00 PM 60.8 °F 46.4 °F 59% 29.24 in 6.2 mi NNW 13.8 mph - N/A   Partly Cloudy
5:30 PM 60.8 °F 46.4 °F 59% 29.24 in 6.2 mi NNW 10.4 mph - N/A   Partly Cloudy
6:00 PM 59.0 °F 46.4 °F 63% 29.27 in 6.2 mi NNW 6.9 mph - N/A   Unknown
6:30 PM 57.2 °F 46.4 °F 67% 29.27 in 6.2 mi WNW 8.1 mph - N/A   Unknown
7:00 PM 55.4 °F 46.4 °F 72% 29.27 in 6.2 mi North 10.4 mph - N/A   Unknown
7:30 PM 53.6 °F 46.4 °F 77% 29.30 in 6.2 mi NNW 6.9 mph - N/A   Unknown
8:00 PM 55.4 °F 44.6 °F 67% 29.30 in 6.2 mi NW 8.1 mph - N/A   Unknown
8:30 PM 57.2 °F 42.8 °F 59% 29.30 in 6.2 mi NW 12.7 mph - N/A   Unknown
9:00 PM 57.2 °F 39.2 °F 51% 29.30 in 6.2 mi NW 16.1 mph - N/A   Unknown
9:30 PM 57.2 °F 39.2 °F 51% 29.30 in 6.2 mi NW 16.1 mph - N/A   Unknown
10:00 PM 55.4 °F 41.0 °F 58% 29.33 in 6.2 mi NNW 13.8 mph - N/A   Unknown
10:30 PM 53.6 °F 41.0 °F 62% 29.33 in 6.2 mi NNW 6.9 mph - N/A   Unknown
11:00 PM 53.6 °F 35.6 °F 51% 29.33 in 6.2 mi NNW 5.8 mph - N/A   Unknown
11:30 PM 53.6 °F 35.6 °F 51% 29.33 in 6.2 mi North 3.5 mph - N/A   Unknown